Hourly Data Report for September 26, 2020

GIMLI CLIMATE
MANITOBA
Current Station Operator: ECCC - MSC

50°38'00.000" N
97°03'00.000" W
230.10 m
5031042
71748
PGH

Download Data

Hourly Data (September 2020)
Hourly Data Report for September 26, 2020
TIME Temp Definition
°C
Dew Point Definition
°C
Rel Hum Definition
%
Wind Dir Definition
10's deg

Wind Spd Definition
km/h
Visibility Definition
km
Stn Press Definition
kPa
Hmdx Definition


Wind Chill Definition


Weather Definition


00:00 11.0 6.4 73 24 8   97.23     LegendNANA
01:00 9.9 5.3 73 21 8   97.20     LegendNANA
02:00 9.5 5.7 77 21 10   97.17     LegendNANA
03:00 9.7 5.8 76 18 7   97.14     LegendNANA
04:00 9.2 5.2 77 17 9   97.12     LegendNANA
05:00 8.8 5.1 77 17 8   97.07     LegendNANA
06:00 8.3 4.8 79 20 11   97.05     LegendNANA
07:00 10.6 5.6 71 21 9   97.02     LegendNANA
08:00 13.9 5.6 57 24 13   96.99     LegendNANA
09:00 15.2 5.8 53 21 17   97.02     LegendNANA
10:00 16.9 5.1 46 22 16   96.97     LegendNANA
11:00 17.5 6.2 47 21 7   96.88     LegendNANA
12:00 17.9 6.4 47 20 5   96.83     LegendNANA
13:00 21.3 3.8 32 22 11   96.77     LegendNANA
14:00 22.4 3.8 30 22 19   96.74     LegendNANA
15:00 21.3 3.7 31 25 14   96.70     LegendNANA
16:00 19.2 8.4 49 22 2   96.69     LegendNANA
17:00 18.7 9.8 56 10 7   96.62     LegendNANA
18:00 17.0 9.4 61 13 7   96.63     LegendNANA
19:00 14.2 9.5 73 22 4   96.64     LegendNANA
20:00 14.6 7.5 62 31 12   96.68     LegendNANA
21:00 12.2 7.7 74 31 7   96.69     LegendNANA
22:00 9.6 6.3 80 29 7   96.68     LegendNANA
23:00 10.4 7.8 84 24 11   96.72     LegendNANA

Notes on Data Quality.

Legend

  • E = Estimated
  • M = Missing
  • NA = Not Available*
  • [empty] = Indicates an unobserved value
Date modified: